Kahului, HI

3:57 PM HST on April 21, 2018 (GMT -1000)
Kahului

Weather History for PHOG - July, 2013

Change the Weather History Date:

Thursday, July 18, 2013

  Actual Average Record
Temperature  
Mean Temperature 80 °F 79 °F  
Max Temperature 88 °F 87 °F 94 °F (1953)
Min Temperature 72 °F 71 °F 61 °F (1951)
Degree Days  
Heating Degree Days 0 0  
Month to date heating degree days 0 0  
Since 1 June heating degree days 0 0  
Since 1 July heating degree days 0 0  
Cooling Degree Days 15 14  
Month to date cooling degree days 261 252  
Year to date cooling degree days 2087 1899  
Since 1 June cooling degree days 703 640  
Growing Degree Days 30 (Base 50)    
Moisture  
Dew Point 73 °F    
Average Humidity 83    
Maximum Humidity 100    
Minimum Humidity 65    
Precipitation  
Precipitation T in 0.02 in 0.25 in (1956)
Month to date precipitation 0.05 0.26  
Year to date precipitation 7.31 9.96  
Snow  
Snow 0.00 in - - ()
Month to date snowfall 0.0  
Since 1 June snowfall 0.0  
Since 1 July snowfall 0.0  
Snow Depth 0.00 in    
Sea Level Pressure  
Sea Level Pressure 30.02 in    
Wind  
Wind Speed 15 mph (NE)    
Max Wind Speed 28 mph    
Max Gust Speed 33 mph    
Visibility 10 miles    
Events Rain    
T = Trace of Precipitation, MM = Missing Value Source: NWS Daily Summary

Daily Weather History Graph

Daily Weather History Graph

Search for Another Location

Airport or City:

Astronomy

Jul. 18, 2013 Rise Set
Actual Time 5:54 AM HST 7:09 PM HST
Civil Twilight 5:30 AM HST 7:33 PM HST
Nautical Twilight 5:01 AM HST 8:02 PM HST
Astronomical Twilight 4:31 AM HST 8:31 PM HST
Moon 3:21 PM HST (7/18) 1:48 AM HST (7/18)
Length of Visible Light 14h 03m
Length of Day
13h 14m
Waxing Gibbous, 79% of the Moon is Illuminated
Jul 18
Waxing Gibbous
Jul 22
Full
Jul 29
Last Quarter
Aug 6
New
Aug 14
First Quarter

Hourly Weather History & Observations

Time (HST) Temp. Heat Index Dew Point Humidity Pressure Visibility Wind Dir Wind Speed Gust Speed Precip Events Conditions
12:54 AM 75.9 °F - 70.0 °F 82% 30.01 in 10.0 mi ENE 11.5 mph - 0.00 in   Overcast
1:54 AM 75.0 °F - 71.1 °F 87% 30.00 in 10.0 mi NE 8.1 mph - N/A   Overcast
2:54 AM 73.9 °F - 71.1 °F 91% 29.99 in 10.0 mi NE 10.4 mph - 0.00 in Rain Light Rain
3:54 AM 73.9 °F - 71.1 °F 91% 30.00 in 10.0 mi NE 12.7 mph - 0.00 in   Clear
4:54 AM 73.9 °F - 73.0 °F 97% 30.00 in 10.0 mi NE 15.0 mph - 0.00 in   Clear
5:54 AM 73.9 °F - 70.0 °F 87% 30.01 in 10.0 mi ENE 9.2 mph - 0.00 in   Partly Cloudy
6:54 AM 75.9 °F - 72.0 °F 87% 30.03 in 10.0 mi NE 9.2 mph - 0.00 in   Clear
7:54 AM 79.0 °F - 72.0 °F 79% 30.04 in 10.0 mi ENE 11.5 mph - 0.00 in   Smoke
8:54 AM 82.9 °F 88.8 °F 73.0 °F 72% 30.04 in 10.0 mi ENE 11.5 mph 23.0 mph 0.00 in   Partly Cloudy
9:54 AM 84.9 °F 93.3 °F 75.0 °F 72% 30.04 in 10.0 mi NE 20.7 mph - N/A   Scattered Clouds
10:54 AM 84.9 °F 91.4 °F 73.0 °F 67% 30.03 in 10.0 mi ENE 18.4 mph 27.6 mph N/A   Scattered Clouds
11:54 AM 86.0 °F 93.8 °F 73.9 °F 67% 30.01 in 10.0 mi ENE 18.4 mph 27.6 mph N/A   Scattered Clouds
12:54 PM 88.0 °F 98.5 °F 75.9 °F 67% 30.01 in 10.0 mi NE 25.3 mph 33.4 mph N/A   Scattered Clouds
1:54 PM 87.1 °F 97.3 °F 75.9 °F 69% 30.00 in 10.0 mi NE 24.2 mph 29.9 mph N/A   Scattered Clouds
2:54 PM 86.0 °F 96.0 °F 75.9 °F 72% 29.99 in 10.0 mi NNE 23.0 mph - N/A   Scattered Clouds
3:54 PM 86.0 °F 96.0 °F 75.9 °F 72% 29.99 in 10.0 mi NNE 21.9 mph - N/A   Scattered Clouds
4:54 PM 84.0 °F 92.6 °F 75.9 °F 76% 29.99 in 10.0 mi NNE 18.4 mph - N/A   Scattered Clouds
5:54 PM 81.0 °F 87.3 °F 75.9 °F 85% 29.99 in 10.0 mi North 19.6 mph - N/A   Scattered Clouds
6:54 PM 79.0 °F - 75.0 °F 88% 30.01 in 10.0 mi NNE 17.3 mph - N/A   Scattered Clouds
7:54 PM 78.1 °F - 75.0 °F 90% 30.03 in 10.0 mi NNE 17.3 mph - N/A   Scattered Clouds
8:54 PM 75.9 °F - 73.0 °F 91% 30.04 in 10.0 mi ENE 9.2 mph - 0.00 in   Scattered Clouds
9:54 PM 75.0 °F - 72.0 °F 90% 30.06 in 10.0 mi ENE 6.9 mph - N/A   Clear
10:54 PM 75.0 °F - 71.1 °F 87% 30.07 in 10.0 mi ENE 5.8 mph - 0.00 in   Partly Cloudy
11:54 PM 71.1 °F - 70.0 °F 96% 30.06 in 10.0 mi Calm Calm - N/A   Clear